15min,AgWx,beryljct,423,24OCT2019:00:00:00,41.4,12.9,38.8,38.7,39.7,40.7,38.7,38,40,35,0.315,15.9,16.4,15.2,5.568,5.3,68,14,8.0,0.00020,0.00027,47.8,50.6,8,0,.,.,5.78,0.00,0.00
15min,AgWx,beryljct,423,24OCT2019:00:15:00,40.7,12.89,39.4,39.3,39.1,40.0,38.3,40,41,38,0.320,16.7,17.2,16.1,13.46,12.1,47,8.0,18.8,0.00038,0.00044,47.6,50.6,8,0,.,.,5.78,0.00,0.00
15min,AgWx,beryljct,423,24OCT2019:00:30:00,40.2,12.88,39.0,38.7,38.9,39.4,38.6,39,40,39,0.316,16.4,16.6,16.1,9.38,10.3,44,6.9,13.9,0.00034,0.00041,47.4,50.5,8,0,.,.,5.78,0.00,0.00
15min,AgWx,beryljct,423,24OCT2019:00:45:00,39.7,12.87,37.7,37.1,38.0,38.8,37.1,40,42,39,0.316,16.1,16.3,16.0,9.16,7.2,30,6.6,9.2,0.00025,0.00032,47.2,50.5,8,0,.,.,5.78,0.00,0.00
15min,AgWx,beryljct,423,24OCT2019:01:00:00,38.9,12.85,37.3,37.4,37.2,37.6,36.7,42,43,40,0.307,16.0,16.3,15.6,4.187,6.0,15,12,8.3,0.00020,0.00026,47.1,50.5,8,0,.,.,5.78,0.00,0.00
15min,AgWx,beryljct,423,24OCT2019:01:15:00,38.0,12.85,35.3,34.7,35.7,37.3,34.3,43,46,41,0.306,15.4,15.7,15.2,3.223,3.2,347,20,4.6,0.00005,0.00008,46.9,50.4,8,0,.,.,5.78,0.00,0.00
15min,AgWx,beryljct,423,24OCT2019:01:30:00,36.9,12.84,33.9,34.5,35.2,36.1,34.5,45,47,43,0.319,15.8,16.6,15.3,4.341,4.0,0.4,26,5.5,0.00008,0.00013,46.7,50.4,8,0,.,.,5.79,0.01,0.00
15min,AgWx,beryljct,423,24OCT2019:01:45:00,36.0,12.83,35.1,35.6,35.2,36.3,33.4,46,50,44,0.317,16.6,17.3,15.9,3.924,3.5,12,13,4.7,0.00005,0.00009,46.5,50.3,8,0,.,.,5.78,0.00,0.00
15min,AgWx,beryljct,423,24OCT2019:02:00:00,35.4,12.82,37.9,36.1,34.7,36.1,34.2,46,48,43,0.309,16.1,16.6,15.5,3.376,4.2,27,7.5,5.0,0.00008,0.00013,46.3,50.3,8,0,.,.,5.79,0.00,0.00
15min,AgWx,beryljct,423,24OCT2019:02:15:00,34.8,12.8,34.6,34.6,34.8,36.3,33.6,43,46,42,0.293,14.7,15.7,14.2,4.012,4.6,320,13,5.9,0.00011,0.00017,46.1,50.2,8,0,.,.,5.79,0.00,0.00
15min,AgWx,beryljct,423,24OCT2019:02:30:00,34.5,12.79,37.6,37.3,35.7,37.4,34.1,41,44,38,0.285,14.4,15.0,13.8,5.941,5.2,356,14,9.3,0.00016,0.00022,45.9,50.1,8,0,.,.,5.79,0.00,0.00
15min,AgWx,beryljct,423,24OCT2019:02:45:00,34.8,12.79,33.8,34.7,35.9,37.4,34.6,40,42,38,0.285,13.8,14.3,13.4,3.946,4.9,355,8.4,7.5,0.00015,0.00021,45.7,50.1,8,0,.,.,5.79,0.00,0.00
15min,AgWx,beryljct,423,24OCT2019:03:00:00,34.6,12.78,33.1,33.4,34.2,35.9,33.0,44,46,41,0.298,14.5,15.0,13.6,5.064,4.9,14,17,5.9,0.00013,0.00018,45.5,50.0,8,0,.,.,5.79,0.00,0.00
15min,AgWx,beryljct,423,24OCT2019:03:15:00,34.1,12.77,36.5,34.9,32.9,34.9,32.3,47,49,44,0.304,15.1,15.5,14.6,7.673,6.5,26,8.6,8.2,0.00016,0.00020,45.3,50.0,8,0,.,.,5.79,0.00,0.00
15min,AgWx,beryljct,423,24OCT2019:03:30:00,34.2,12.76,35.9,35.7,35.5,36.2,35.0,42,44,41,0.297,14.6,15.4,14.3,7.037,7.1,9.4,6.2,8.4,0.00022,0.00028,45.1,49.9,8,0,.,.,5.79,0.00,0.00
15min,AgWx,beryljct,423,24OCT2019:03:45:00,34.6,12.76,35.2,35.0,35.5,35.8,35.0,44,46,42,0.316,15.6,16.3,14.7,9.25,8.3,0.1,17,9.7,0.00024,0.00030,44.9,49.8,8,0,.,.,5.79,0.00,0.00
15min,AgWx,beryljct,423,24OCT2019:04:00:00,34.6,12.75,32.3,32.3,33.4,35.1,32.3,50,52,46,0.323,16.5,16.9,16.0,6.686,7.0,350,4.8,9.8,0.00016,0.00021,44.7,49.8,8,0,.,.,5.79,0.00,0.00
15min,AgWx,beryljct,423,24OCT2019:04:15:00,34.0,12.74,31.9,31.6,32.0,32.3,31.5,53,53,52,0.321,16.7,16.9,16.4,4.867,5.9,345,3.3,6.9,0.00011,0.00015,44.6,49.7,8,0,.,.,5.79,0.00,0.00
15min,AgWx,beryljct,423,24OCT2019:04:30:00,33.1,12.74,31.9,31.2,31.0,31.6,30.6,54,55,53,0.316,16.4,16.6,16.2,4.384,4.4,346,4.0,5.3,0.00006,0.00009,44.4,49.6,8,0,.,.,5.79,0.00,0.00
15min,AgWx,beryljct,423,24OCT2019:04:45:00,32.2,12.73,30.0,30.5,30.4,31.3,29.5,55,56,53,0.307,15.9,16.3,15.6,3.266,3.7,349,4.4,4.7,0.00003,0.00006,44.3,49.6,8,0,.,.,5.79,0.00,0.00
15min,AgWx,beryljct,423,24OCT2019:05:00:00,31.1,12.71,30.0,28.5,28.1,30.4,26.6,58,62,53,0.320,15.3,16.5,14.1,4.845,3.4,323,10,5.1,0.00000,0.00002,44.1,49.5,8,0,.,.,5.79,0.00,0.00
15min,AgWx,beryljct,423,24OCT2019:05:15:00,30.2,12.72,29.4,28.9,29.0,29.5,28.6,58,60,57,0.310,16.0,16.6,15.5,4.867,4.7,312,5.6,5.5,0.00005,0.00008,43.9,49.4,8,0,.,.,5.79,0.00,0.00
15min,AgWx,beryljct,423,24OCT2019:05:30:00,29.7,12.72,31.4,30.5,29.6,30.5,28.9,56,57,55,0.314,15.8,16.2,15.5,6.138,5.4,312,7.0,6.2,0.00008,0.00011,43.7,49.4,8,0,.,.,5.79,0.00,0.00
15min,AgWx,beryljct,423,24OCT2019:05:45:00,29.7,12.71,33.2,32.6,31.3,32.6,30.3,54,55,51,0.320,16.3,16.7,15.9,5.919,5.1,345,12,6.8,0.00008,0.00012,43.6,49.3,8,0,.,.,5.79,0.00,0.00
15min,AgWx,beryljct,423,24OCT2019:06:00:00,30.2,12.7,32.4,31.3,31.8,32.6,31.1,52,54,51,0.321,16.4,16.7,16.1,6.905,5.1,346,7.7,6.9,0.00009,0.00013,43.4,49.2,8,0,.,.,5.79,0.00,0.00
15min,AgWx,beryljct,423,24OCT2019:06:15:00,30.4,12.71,32.2,31.5,31.2,31.6,30.8,54,55,53,0.317,16.4,16.7,16.2,6.533,5.5,331,7.9,6.6,0.00036,0.00063,43.3,49.1,8,0,.,.,5.79,0.00,0.00
15min,AgWx,beryljct,423,24OCT2019:06:30:00,30.3,12.7,28.2,28.0,30.0,31.6,28.0,55,58,53,0.301,15.7,16.4,15.0,3.836,4.3,328,8.8,6.1,0.00029,0.00050,43.1,49.1,8,0,.,.,5.79,0.00,0.00
15min,AgWx,beryljct,423,24OCT2019:06:45:00,29.6,12.71,26.4,26.7,27.8,28.4,26.7,59,61,58,0.298,15.3,15.7,14.8,3.31,4.2,322,7.0,5.1,0.00024,0.00042,42.9,49.0,8,1,.,.,5.80,0.00,0.00
15min,AgWx,beryljct,423,24OCT2019:07:00:00,28.6,12.72,25.2,24.5,25.8,26.6,24.5,63,64,61,0.289,14.7,15.1,14.2,0,2.8,325,7.0,3.9,0.00017,0.00029,42.8,48.9,8,7,.,.,5.80,0.00,0.00
15min,AgWx,beryljct,423,24OCT2019:07:15:00,27.8,12.85,28.0,26.8,25.7,26.8,24.5,64,65,62,0.310,15.3,16.0,14.2,2.236,1.9,174,25,3.5,0.00024,0.00032,42.6,48.8,8,39,.,.,5.80,0.00,0.00
15min,AgWx,beryljct,423,24OCT2019:07:30:00,28.0,13.12,28.9,29.6,28.8,30.2,26.8,58,63,55,0.313,16.1,16.5,15.6,1.118,1.2,266,96,4.3,0.00034,0.00042,42.5,48.8,8,78,.,.,5.80,0.00,0.00
15min,AgWx,beryljct,423,24OCT2019:07:45:00,29.4,13.52,30.7,30.2,30.3,30.7,29.5,56,57,55,0.325,16.4,16.9,16.0,2.28,2.7,51,13,4.8,0.00054,0.00071,42.3,48.7,8,120,.,.,5.79,0.00,0.00
15min,AgWx,beryljct,423,24OCT2019:08:00:00,31.2,14.5,32.3,31.8,30.7,31.8,30.1,58,60,56,0.340,17.7,18.3,16.8,2.762,2.6,104,17,4.0,0.00066,0.00082,42.1,48.6,8,162,.,.,5.79,0.00,0.00
15min,AgWx,beryljct,423,24OCT2019:08:15:00,33.3,14.76,34.0,33.9,33.1,33.9,31.8,55,57,53,0.372,18.8,20.1,17.8,3.398,2.8,112,11,4.6,0.00086,0.00106,42.0,48.5,8,208,.,.,5.79,0.00,0.00
15min,AgWx,beryljct,423,24OCT2019:08:30:00,35.6,14.71,36.3,36.0,35.0,36.2,33.8,52,56,48,0.356,19.1,20.0,18.5,0,2.3,153,33,3.9,0.00105,0.00125,41.9,48.4,8,254,.,.,5.79,0.00,0.00
15min,AgWx,beryljct,423,24OCT2019:08:45:00,38.2,14.64,39.9,39.6,38.6,39.6,36.1,46,50,44,0.367,19.7,20.5,19.1,8.48,8.0,34,7.9,13.4,0.00152,0.00207,41.8,48.3,8,299,.,.,5.79,0.00,0.00
15min,AgWx,beryljct,423,24OCT2019:09:00:00,40.5,14.58,39.8,39.6,39.7,40.1,39.4,43,45,42,0.351,19.3,20.2,18.4,6.862,8.5,22,13,11.4,0.00176,0.00238,41.7,48.3,8,344,.,.,5.79,0.00,0.00
15min,AgWx,beryljct,423,24OCT2019:09:15:00,42.2,14.62,40.5,40.8,40.1,40.9,39.6,42,44,41,0.369,19.0,19.8,18.5,9.14,7.7,12,12,10.7,0.00191,0.00252,41.7,48.2,8,388,.,.,5.79,0.00,0.00
15min,AgWx,beryljct,423,24OCT2019:09:30:00,43.8,14.59,42.1,42.1,41.6,42.2,40.8,41,43,40,0.369,19.8,20.9,19.0,9.45,8.9,12,17,11.7,0.00215,0.00285,41.7,48.2,8,430,.,.,5.79,0.00,0.00
15min,AgWx,beryljct,423,24OCT2019:09:45:00,45.4,14.51,43.3,43.8,43.2,44.1,41.9,41,43,39,0.397,21.0,22.8,19.3,14.38,10.5,28,22,15.1,0.00238,0.00319,41.8,48.1,8,461,.,.,5.79,0.00,0.00
15min,AgWx,beryljct,423,24OCT2019:10:00:00,46.8,14.51,44.8,44.8,44.2,44.9,43.6,41,43,39,0.420,22.2,23.8,21.1,11.55,12.7,45,12,16.4,0.00261,0.00354,41.9,48.0,8,507,.,.,5.78,0.00,0.00
15min,AgWx,beryljct,423,24OCT2019:10:15:00,47.9,14.09,44.2,45.0,45.0,45.6,44.4,41,43,40,0.424,22.7,23.8,21.5,13.77,11.8,47,10,16.4,0.00276,0.00368,42.1,47.9,8,542,.,.,5.78,0.00,0.00
15min,AgWx,beryljct,423,24OCT2019:10:30:00,48.9,14.05,46.7,46.3,45.8,46.9,44.9,40,41,38,0.430,22.6,23.9,21.8,12.54,11.8,40,13,17.2,0.00289,0.00386,42.3,47.8,8,558,.,.,5.78,0.00,0.00
15min,AgWx,beryljct,423,24OCT2019:10:45:00,49.8,14.04,48.0,46.5,46.5,47.2,45.9,38,40,36,0.423,22.4,23.5,21.4,8.86,12.8,43,13,17.9,0.00309,0.00414,42.5,47.8,8,594,.,.,5.78,0.00,0.00
15min,AgWx,beryljct,423,24OCT2019:11:00:00,50.7,14,45.6,46.4,47.3,48.0,46.4,39,40,37,0.412,23.3,24.6,22.2,13.79,12.2,47,15,16.7,0.00321,0.00425,42.8,47.7,8,621,.,.,5.78,0.00,0.00
15min,AgWx,beryljct,423,24OCT2019:11:15:00,51.3,14.02,49.5,47.7,47.0,47.8,46.2,38,40,36,0.423,22.8,24.1,21.5,11.68,13.3,56,12,18.1,0.00330,0.00440,43.1,47.7,8,647,.,.,5.78,0.00,0.00
15min,AgWx,beryljct,423,24OCT2019:11:30:00,51.7,14.01,48.0,48.2,47.8,48.3,47.1,36,38,35,0.405,22.2,23.6,20.8,15.41,14.7,52,14,19.7,0.00341,0.00462,43.4,47.6,8,648,.,.,5.78,0.00,0.00
15min,AgWx,beryljct,423,24OCT2019:11:45:00,52.1,13.98,48.1,48.8,48.3,49.2,47.5,34,36,30,0.382,21.0,22.8,18.5,12.82,14.7,44,14,19.4,0.00354,0.00481,43.9,47.6,8,661,.,.,5.77,0.00,0.00
15min,AgWx,beryljct,423,24OCT2019:12:00:00,52.6,14.01,51.6,50.3,49.0,50.3,48.5,33,34,32,0.412,21.2,22.4,20.2,9.67,14.5,46,14,21.8,0.00363,0.00492,44.2,47.5,8,670,.,.,5.77,0.00,0.00
15min,AgWx,beryljct,423,24OCT2019:12:15:00,53.1,13.99,50.3,49.6,49.6,50.4,49.0,33,34,30,0.376,21.4,22.8,19.4,12.61,15.2,48,12,21.1,0.00366,0.00500,44.6,47.5,8,661,.,.,5.77,0.00,0.00
15min,AgWx,beryljct,423,24OCT2019:12:30:00,53.5,13.96,50.5,49.7,50.0,51.0,49.2,33,36,29,0.360,22.0,23.9,19.1,13.92,14.3,46,8.6,18.9,0.00366,0.00497,45.0,47.5,8,661,.,.,5.76,0.00,0.00
15min,AgWx,beryljct,423,24OCT2019:12:45:00,53.8,13.97,51.5,50.5,50.0,50.5,49.6,31,33,30,0.402,20.7,22.3,19.3,10.33,15.1,47,12,21.1,0.00378,0.00516,45.5,47.5,8,675,.,.,5.77,0.00,0.00
15min,AgWx,beryljct,423,24OCT2019:13:00:00,54.3,13.93,50.4,52.6,51.2,52.6,50.4,30,33,27,0.385,21.1,22.7,19.6,18.33,14.6,41,12,20.9,0.00384,0.00524,45.9,47.5,8,666,.,.,5.77,0.00,0.00
15min,AgWx,beryljct,423,24OCT2019:13:15:00,55.0,13.94,51.7,52.0,51.6,52.3,51.2,29,31,28,0.378,20.3,22.5,19.1,15.21,14.6,43,13,19.1,0.00390,0.00535,46.3,47.5,8,664,.,.,5.77,0.00,0.00
15min,AgWx,beryljct,423,24OCT2019:13:30:00,55.5,13.91,52.3,51.5,51.7,52.4,51.0,28,30,27,0.346,19.9,21.4,18.3,16.07,13.7,45,13,18.5,0.00382,0.00523,46.7,47.5,8,645,.,.,5.76,0.00,0.00
15min,AgWx,beryljct,423,24OCT2019:13:45:00,56.0,13.91,52.3,52.5,52.1,53.0,51.5,26,28,24,0.327,18.6,19.9,17.0,17.71,14.3,37,12,19.0,0.00382,0.00531,47.1,47.5,8,620,.,.,5.77,0.00,0.00
15min,AgWx,beryljct,423,24OCT2019:14:00:00,56.5,13.88,54.1,53.5,52.8,53.5,52.4,24,27,20,0.338,17.1,20.1,13.1,10.9,15.0,36,18,19.6,0.00388,0.00547,47.6,47.6,8,603,.,.,5.77,0.00,0.00
15min,AgWx,beryljct,423,24OCT2019:14:15:00,56.9,13.88,53.9,52.7,53.1,53.7,52.6,24,28,22,0.309,17.4,21.4,14.7,10.06,14.9,41,12,21.1,0.00373,0.00531,48.0,47.6,8,561,.,.,5.76,0.00,0.00
15min,AgWx,beryljct,423,24OCT2019:14:30:00,57.1,13.88,52.7,53.3,53.0,53.4,52.5,23,25,21,0.309,16.0,18.3,14.3,19.8,16.0,43,11,21.2,0.00374,0.00540,48.3,47.7,8,547,.,.,5.76,0.00,0.00
15min,AgWx,beryljct,423,24OCT2019:14:45:00,57.4,13.88,53.5,53.0,53.3,54.2,52.9,22,25,19,0.290,15.5,18.6,11.9,13.48,15.9,40,8.1,21.6,0.00364,0.00533,48.7,47.7,8,507,.,.,5.76,0.00,0.00
15min,AgWx,beryljct,423,24OCT2019:15:00:00,57.5,13.84,52.3,53.2,53.1,53.4,52.7,23,26,21,0.304,16.4,19.0,13.5,17.06,15.4,48,12,23.4,0.00345,0.00507,49.0,47.8,8,480,.,.,5.76,0.00,0.00
15min,AgWx,beryljct,423,24OCT2019:15:15:00,57.5,13.85,53.5,53.2,53.1,53.4,52.9,23,25,21,0.345,16.7,18.5,14.6,14.95,15.4,54,8.2,19.7,0.00326,0.00487,49.3,47.9,8,432,.,.,5.76,0.00,0.00
15min,AgWx,beryljct,423,24OCT2019:15:30:00,57.4,13.87,52.9,52.9,53.1,53.4,52.8,22,25,21,0.302,15.7,18.1,13.9,15.35,16.6,49,10,21.6,0.00323,0.00491,49.6,47.9,8,399,.,.,5.76,0.00,0.00
15min,AgWx,beryljct,423,24OCT2019:15:45:00,57.1,13.88,53.2,53.0,53.0,53.2,52.7,22,24,20,0.277,14.8,16.8,12.6,13.68,16.3,49,9.1,21.4,0.00304,0.00471,49.8,48.0,8,351,.,.,5.76,0.00,0.00
15min,AgWx,beryljct,423,24OCT2019:16:00:00,56.9,13.89,52.8,52.9,53.0,53.2,52.7,21,22,20,0.278,14.1,15.8,12.8,14.6,14.8,48,9.0,21.1,0.00280,0.00438,50.0,48.1,8,312,.,.,5.76,0.00,0.00
15min,AgWx,beryljct,423,24OCT2019:16:15:00,56.6,13.88,52.6,52.6,52.9,53.1,52.6,20,21,19,0.266,13.0,14.5,11.5,15.54,15.3,46,8.8,20.2,0.00271,0.00432,50.2,48.2,8,277,.,.,5.76,0.00,0.00
15min,AgWx,beryljct,423,24OCT2019:16:30:00,56.3,13.87,52.4,52.3,52.4,52.8,52.3,19,21,18,0.242,11.7,13.5,9.9,16.7,16.6,46,10,20.9,0.00264,0.00433,50.3,48.3,8,236,.,.,5.76,0.00,0.00
15min,AgWx,beryljct,423,24OCT2019:16:45:00,55.7,13.9,51.9,51.9,52.0,52.4,51.7,19,21,18,0.257,11.5,13.6,10.1,16.75,15.2,46,8.8,20.0,0.00226,0.00384,50.4,48.4,8,171,.,.,5.76,0.00,0.00
15min,AgWx,beryljct,423,24OCT2019:17:00:00,54.9,13.96,51.6,51.0,51.4,51.8,50.9,20,21,19,0.251,11.7,12.9,11.0,17.06,14.6,49,7.9,19.8,0.00096,0.00112,50.5,48.5,8,131,.,.,5.76,0.00,0.00
15min,AgWx,beryljct,423,24OCT2019:17:15:00,53.7,13.97,49.9,50.1,50.6,51.1,50.1,21,22,19,0.266,11.8,12.8,10.6,12.04,14.3,48,7.1,19.8,0.00088,0.00103,50.5,48.6,8,89,.,.,5.76,0.00,0.00
15min,AgWx,beryljct,423,24OCT2019:17:30:00,52.3,13.25,49.2,48.8,49.4,50.1,48.7,22,23,21,0.265,12.6,13.2,12.1,10.63,11.8,47,8.1,15.9,0.00071,0.00086,50.4,48.7,8,31,.,.,5.76,0.00,0.00
15min,AgWx,beryljct,423,24OCT2019:17:45:00,50.7,13.16,47.0,47.3,48.4,48.9,47.3,24,25,23,0.281,12.8,13.5,12.3,7.432,10.5,48,6.1,17.0,0.00062,0.00075,50.4,48.7,8,10,.,.,5.77,0.00,0.00
15min,AgWx,beryljct,423,24OCT2019:18:00:00,49.1,13.12,45.4,46.1,46.9,47.6,46.1,26,28,25,0.293,13.7,14.5,13.0,6.883,9.2,49,6.5,13.9,0.00052,0.00064,50.3,48.8,8,2,.,.,5.77,0.00,0.00
15min,AgWx,beryljct,423,24OCT2019:18:15:00,47.6,13.1,44.8,45.2,45.8,46.2,45.2,29,31,28,0.313,15.1,16.1,14.5,7.958,8.7,44,7.3,11.0,0.00046,0.00057,50.2,48.9,8,0,.,.,5.77,0.00,0.00
15min,AgWx,beryljct,423,24OCT2019:18:30:00,46.4,13.07,44.8,44.8,45.0,45.2,44.5,31,32,30,0.312,16.0,16.3,15.7,9.36,9.1,45,7.1,11.7,0.00044,0.00055,50.0,49.0,8,0,.,.,5.77,0.00,0.00
15min,AgWx,beryljct,423,24OCT2019:18:45:00,45.6,13.07,43.8,44.1,44.5,44.9,44.1,32,32,31,0.316,16.3,16.5,16.0,7.41,9.0,43,8.3,11.9,0.00043,0.00053,49.8,49.1,8,0,.,.,5.77,0.00,0.00
15min,AgWx,beryljct,423,24OCT2019:19:00:00,44.7,13.05,42.7,42.4,43.5,44.2,42.4,33,35,32,0.319,16.4,16.7,16.1,3.288,5.9,51,9.5,10.2,0.00028,0.00038,49.6,49.1,8,0,.,.,5.77,0.00,0.00
15min,AgWx,beryljct,423,24OCT2019:19:15:00,43.5,13.05,41.1,42.1,42.4,42.8,42.0,34,35,33,0.311,16.0,16.4,15.7,3.99,2.9,57,6.7,5.7,0.00006,0.00011,49.4,49.1,8,0,.,.,5.77,0.00,0.00
15min,AgWx,beryljct,423,24OCT2019:19:30:00,42.4,13.04,40.5,40.8,41.7,42.6,40.8,35,37,33,0.312,16.0,16.3,15.7,4.143,4.4,59,11,6.3,0.00017,0.00025,49.2,49.2,8,0,.,.,5.77,0.00,0.00
15min,AgWx,beryljct,423,24OCT2019:19:45:00,41.4,13.03,40.2,40.6,40.7,41.1,39.7,35,37,33,0.288,15.1,16.3,14.0,4.823,4.6,63,9.7,6.7,0.00018,0.00026,49.0,49.3,8,0,.,.,5.77,0.00,0.00
15min,AgWx,beryljct,423,24OCT2019:20:00:00,40.6,13.01,39.6,41.1,41.2,42.2,40.3,32,34,29,0.276,13.2,14.4,12.0,4.889,5.0,64,8.7,6.8,0.00022,0.00030,48.8,49.3,8,0,.,.,5.77,0.00,0.00
15min,AgWx,beryljct,423,24OCT2019:20:15:00,40.2,13.01,41.5,41.9,40.8,41.9,39.9,32,34,30,0.270,13.3,14.0,12.5,6.423,6.0,45,12,9.3,0.00027,0.00036,48.5,49.4,8,0,.,.,5.78,0.00,0.00
15min,AgWx,beryljct,423,24OCT2019:20:30:00,40.0,12.99,38.9,40.1,41.0,41.9,40.1,31,32,30,0.265,12.5,13.3,11.8,4.911,4.8,34,6.1,6.8,0.00021,0.00030,48.3,49.4,8,0,.,.,5.77,0.00,0.00
15min,AgWx,beryljct,423,24OCT2019:20:45:00,39.5,12.99,39.1,39.0,39.1,40.0,38.6,33,35,32,0.263,12.6,13.2,12.1,4.932,4.7,44,3.7,5.7,0.00019,0.00026,48.1,49.4,8,0,.,.,5.78,0.00,0.00
15min,AgWx,beryljct,423,24OCT2019:21:00:00,38.6,12.96,36.7,36.6,37.9,39.0,36.6,34,37,32,0.269,11.8,12.6,11.0,5.371,5.0,40,3.8,5.7,0.00019,0.00027,47.8,49.4,8,0,.,.,5.78,0.00,0.00
15min,AgWx,beryljct,423,24OCT2019:21:15:00,37.5,12.96,36.9,36.1,35.5,36.6,35.0,39,41,37,0.271,13.2,13.6,12.5,3.902,4.9,45,3.0,5.7,0.00015,0.00021,47.6,49.4,8,0,.,.,5.78,0.00,0.00
15min,AgWx,beryljct,423,24OCT2019:21:30:00,36.6,12.96,37.5,36.3,36.6,37.3,35.8,36,38,34,0.264,12.0,12.8,11.2,2.894,1.9,31,22,4.1,-0.00004,-0.00003,47.3,49.4,8,0,.,.,5.78,0.00,0.00
15min,AgWx,beryljct,423,24OCT2019:21:45:00,36.0,12.95,35.2,36.1,36.7,37.4,35.8,35,36,34,0.255,11.3,12.1,10.9,2.433,3.6,338,8.3,4.9,0.00010,0.00016,47.1,49.4,8,0,.,.,5.78,0.00,0.00
15min,AgWx,beryljct,423,24OCT2019:22:00:00,35.5,12.94,34.2,33.6,34.9,35.9,33.5,38,41,36,0.268,11.8,12.5,11.4,2.368,2.8,328,5.6,3.8,0.00004,0.00007,46.9,49.4,8,0,.,.,5.78,0.00,0.00
15min,AgWx,beryljct,423,24OCT2019:22:15:00,35.1,12.92,37.4,37.6,36.6,38.9,33.7,35,41,32,0.258,11.6,12.5,10.9,2.653,3.9,0.9,19,5.8,0.00012,0.00018,46.6,49.4,8,0,.,.,5.78,0.00,0.00
15min,AgWx,beryljct,423,24OCT2019:22:30:00,35.3,12.91,39.2,37.7,37.5,38.4,36.8,33,35,32,0.254,11.3,11.9,10.8,3.836,2.7,14,15,3.8,0.00004,0.00008,46.4,49.4,8,0,.,.,5.78,0.00,0.00
15min,AgWx,beryljct,423,24OCT2019:22:45:00,35.5,12.92,38.2,38.4,38.1,38.7,37.5,33,34,31,0.250,11.2,11.6,10.9,3.749,3.5,23,7.9,4.7,0.00011,0.00017,46.1,49.4,8,0,.,.,5.78,0.00,0.00
15min,AgWx,beryljct,423,24OCT2019:23:00:00,35.7,12.9,34.1,33.8,36.2,38.3,33.8,35,41,32,0.267,11.1,12.4,10.5,5.108,4.6,45,14,5.7,0.00016,0.00022,45.9,49.4,8,0,.,.,5.78,0.00,0.00
15min,AgWx,beryljct,423,24OCT2019:23:15:00,35.0,12.9,33.6,33.5,33.2,33.8,32.7,42,45,38,0.249,12.5,13.5,10.7,2.631,3.9,54,11,5.5,0.00008,0.00013,45.7,49.3,8,0,.,.,5.78,0.01,0.00
15min,AgWx,beryljct,423,24OCT2019:23:30:00,34.3,12.9,34.2,34.2,34.5,35.5,33.4,37,39,35,0.257,10.8,11.5,10.2,4.867,3.8,68,5.7,5.3,0.00010,0.00015,45.5,49.3,8,0,.,.,5.78,0.00,0.00
15min,AgWx,beryljct,423,24OCT2019:23:45:00,33.9,12.88,32.3,32.8,34.0,34.4,32.8,39,40,39,0.244,11.9,12.3,10.3,3.968,5.4,53,5.6,6.4,0.00016,0.00022,45.3,49.3,8,0,.,.,5.78,0.00,0.00
15min,AgWx,bigpiney,439,24OCT2019:00:00:00,23.8,12.53,20.0,19.9,21.2,21.8,19.9,80,81,79,0.300,16.0,16.8,15.1,4.319,5.0,214,9.8,7.1,0.00005,0.00006,38.1,39.8,43,0,0,0.0,5.47,0.00,0.00
15min,AgWx,bigpiney,439,24OCT2019:00:15:00,23.5,12.53,20.6,19.4,19.5,20.0,18.7,82,84,80,0.291,14.9,15.7,13.8,5.459,4.5,237,7.0,6.2,0.00004,0.00005,38.1,39.8,43,0,0,0.0,5.47,0.00,0.00
15min,AgWx,bigpiney,439,24OCT2019:00:30:00,23.3,12.51,23.4,22.9,21.4,23.3,19.5,82,82,80,0.334,16.6,18.7,14.5,5.152,6.0,235,11,10.5,0.00005,0.00006,38.0,39.7,43,0,0,0.0,5.47,0.00,0.00
15min,AgWx,bigpiney,439,24OCT2019:00:45:00,23.6,12.51,22.0,22.0,22.7,23.3,22.0,78,80,74,0.303,16.7,18.0,15.1,2.74,4.5,239,18,6.8,0.00006,0.00007,38.0,39.8,43,0,0,0.0,5.47,0.00,0.00
15min,AgWx,bigpiney,439,24OCT2019:01:00:00,24.0,12.5,22.4,21.9,21.6,22.1,21.1,75,78,72,0.291,14.9,15.7,14.3,1.228,1.3,331,52,3.5,0.00001,0.00002,38.0,39.8,43,0,0,0.0,5.47,0.00,0.00
15min,AgWx,bigpiney,439,24OCT2019:01:15:00,24.2,12.49,22.7,22.4,21.9,22.5,21.3,72,75,69,0.287,14.3,14.9,13.9,3.376,2.2,255,30,4.0,0.00004,0.00006,38.0,39.7,43,0,0,0.0,5.47,0.00,0.00
15min,AgWx,bigpiney,439,24OCT2019:01:30:00,24.4,12.48,22.7,22.2,22.0,22.4,21.7,75,76,70,0.311,15.2,15.9,14.0,4.121,3.2,225,9.4,4.7,0.00005,0.00007,37.9,39.7,43,0,0,0.0,5.47,0.00,0.00
15min,AgWx,bigpiney,439,24OCT2019:01:45:00,24.7,12.48,24.7,24.0,22.9,24.0,22.2,78,79,76,0.345,16.9,18.3,15.9,5.152,4.7,209,9.0,6.1,0.00006,0.00007,37.9,39.7,43,0,0,0.0,5.47,0.00,0.00
15min,AgWx,bigpiney,439,24OCT2019:02:00:00,25.2,12.46,25.5,24.7,24.9,25.4,24.0,77,79,75,0.351,18.6,19.0,18.3,4.165,4.3,206,19,7.0,0.00006,0.00008,37.9,39.8,43,0,0,0.0,5.47,0.00,0.00
15min,AgWx,bigpiney,439,24OCT2019:02:15:00,25.8,12.46,25.4,25.0,25.0,25.3,24.7,76,78,76,0.350,18.6,18.9,18.5,3.157,3.4,220,14,6.1,0.00005,0.00007,37.8,39.7,43,0,0,0.0,5.47,0.00,0.00
15min,AgWx,bigpiney,439,24OCT2019:02:30:00,26.1,12.44,25.2,24.9,24.8,25.1,24.5,77,78,75,0.346,18.6,18.9,18.3,5.174,4.6,216,9.9,7.8,0.00006,0.00008,37.8,39.7,43,0,0,0.0,5.47,0.00,0.00
15min,AgWx,bigpiney,439,24OCT2019:02:45:00,26.5,12.44,25.3,25.0,24.8,25.1,24.7,75,76,74,0.339,18.1,18.4,17.8,4.341,5.0,200,8.1,6.8,0.00007,0.00009,37.8,39.7,43,0,0,0.0,5.47,0.00,0.00
15min,AgWx,bigpiney,439,24OCT2019:03:00:00,26.7,12.42,24.6,24.5,24.9,25.1,24.5,74,76,73,0.333,17.9,18.3,17.5,4.143,4.5,187,7.9,8.5,0.00007,0.00009,37.7,39.6,43,0,0,0.0,5.47,0.00,0.00
15min,AgWx,bigpiney,439,24OCT2019:03:15:00,26.5,12.42,21.1,21.2,23.1,24.5,21.2,75,77,74,0.300,16.4,17.5,15.1,3.179,3.7,194,10,4.8,0.00006,0.00007,37.7,39.7,43,0,0,0.0,5.47,0.00,0.00
15min,AgWx,bigpiney,439,24OCT2019:03:30:00,25.6,12.41,22.2,21.4,20.3,21.4,18.6,80,83,77,0.318,15.0,16.8,13.4,5.217,4.6,252,12,5.9,0.00005,0.00006,37.7,39.7,43,0,0,0.0,5.47,0.00,0.00
15min,AgWx,bigpiney,439,24OCT2019:03:45:00,24.3,12.4,21.0,20.9,20.5,21.4,19.9,79,81,78,0.312,15.0,16.4,14.2,3.771,4.6,246,7.0,5.8,0.00005,0.00006,37.7,39.6,43,0,0,0.0,5.47,0.00,0.00
15min,AgWx,bigpiney,439,24OCT2019:04:00:00,23.5,12.37,17.7,20.0,20.7,21.1,20.0,80,81,79,0.293,15.6,16.1,14.5,2.959,3.7,268,19,5.1,0.00004,0.00005,37.6,39.7,43,0,0,0.0,5.47,0.00,0.00
15min,AgWx,bigpiney,439,24OCT2019:04:15:00,22.9,12.37,18.6,17.8,17.7,19.8,16.8,81,83,77,0.273,12.7,14.2,11.9,4.099,4.5,325,11,6.8,0.00004,0.00005,37.6,39.6,43,0,0,0.0,5.47,0.00,0.00
15min,AgWx,bigpiney,439,24OCT2019:04:30:00,22.2,12.35,18.0,17.3,17.5,18.0,17.0,81,82,79,0.268,12.6,13.3,11.7,3.223,3.1,306,11,4.8,0.00003,0.00004,37.6,39.7,43,0,0,0.0,5.47,0.00,0.00
15min,AgWx,bigpiney,439,24OCT2019:04:45:00,21.4,12.32,17.1,16.8,16.6,17.4,15.7,82,84,80,0.269,11.9,12.6,11.0,2.214,2.4,266,31,3.5,0.00002,0.00003,37.6,39.7,43,0,0,0.0,5.47,0.00,0.00
15min,AgWx,bigpiney,439,24OCT2019:05:00:00,20.6,12.31,14.8,13.8,15.3,16.8,13.8,82,83,80,0.231,10.7,12.5,9.1,5.086,4.1,241,14,6.1,0.00003,0.00004,37.5,39.7,43,0,0,0.0,5.47,0.00,0.00
15min,AgWx,bigpiney,439,24OCT2019:05:15:00,19.7,12.3,17.4,15.7,14.1,15.7,13.1,84,86,82,0.260,10.1,12.1,8.9,3.42,3.6,226,11,5.0,0.00002,0.00003,37.5,39.6,43,0,0,0.0,5.47,0.00,0.00
15min,AgWx,bigpiney,439,24OCT2019:05:30:00,18.9,12.29,15.5,14.1,14.6,16.5,13.1,82,85,81,0.244,10.2,12.5,8.7,2.653,2.9,255,11,4.0,0.00002,0.00003,37.5,39.6,43,0,0,0.0,5.47,0.00,0.00
15min,AgWx,bigpiney,439,24OCT2019:05:45:00,18.1,12.27,14.9,14.8,14.3,15.5,12.9,84,86,81,0.246,10.3,11.9,8.1,1.666,1.9,278,40,5.2,0.00001,0.00002,37.5,39.6,43,0,0,0.0,5.47,0.00,0.00
15min,AgWx,bigpiney,439,24OCT2019:06:00:00,17.5,12.26,16.6,16.4,16.2,17.0,13.7,83,86,81,0.258,11.8,13.3,9.1,3.354,1.8,305,39,3.4,0.00001,0.00002,37.5,39.6,43,0,0,0.0,5.47,0.00,0.00
15min,AgWx,bigpiney,439,24OCT2019:06:15:00,17.0,12.25,16.2,15.9,15.2,16.3,14.3,82,84,81,0.258,10.7,12.0,9.6,3.968,4.3,314,7.6,5.3,0.00003,0.00004,37.4,39.5,43,0,0,0.0,5.47,0.00,0.00
15min,AgWx,bigpiney,439,24OCT2019:06:30:00,16.5,12.23,12.2,12.9,14.6,16.2,12.2,82,84,78,0.226,10.0,11.9,6.8,4.143,2.9,266,39,5.7,0.00002,0.00003,37.4,39.6,43,0,0,0.0,5.47,0.00,0.00
15min,AgWx,bigpiney,439,24OCT2019:06:45:00,15.9,12.24,12.2,11.2,12.9,14.2,11.2,83,86,80,0.207,8.8,10.6,6.7,2.346,2.1,234,13,4.6,0.00001,0.00002,37.4,39.6,43,2,0,0.0,5.47,0.00,0.00
15min,AgWx,bigpiney,439,24OCT2019:07:00:00,15.1,12.23,13.4,11.9,11.4,13.1,9.9,85,86,82,0.218,7.6,9.7,5.7,2.192,2.2,246,8.3,3.0,0.00002,0.00003,37.4,39.6,43,10,0,0.0,5.47,0.00,0.00
15min,AgWx,bigpiney,439,24OCT2019:07:15:00,14.5,12.41,14.7,13.5,12.7,13.7,10.7,84,86,81,0.233,8.6,10.0,6.2,1.359,1.6,284,28,2.7,-0.00015,-0.00014,37.4,39.6,43,29,0,0.0,5.47,0.00,0.00
15min,AgWx,bigpiney,439,24OCT2019:07:30:00,14.3,12.93,11.7,12.0,13.5,14.3,12.0,82,84,79,0.214,9.0,10.2,7.1,2.981,1.2,316,76,3.9,-0.00006,-0.00004,37.3,39.6,43,68,0,0.0,5.47,0.00,0.00
15min,AgWx,bigpiney,439,24OCT2019:07:45:00,14.8,13.95,15.6,14.5,12.7,14.5,11.5,85,86,82,0.250,9.0,11.0,7.1,1.118,1.3,149,16,2.8,0.00010,0.00012,37.3,39.5,43,126,0,0.0,5.47,0.00,0.00
15min,AgWx,bigpiney,439,24OCT2019:08:00:00,16.2,14.99,18.3,17.3,16.0,17.3,14.6,84,86,82,0.271,11.9,12.8,11.1,0.986,1.3,166,29,2.4,0.00024,0.00027,37.3,39.5,43,171,0,0.0,5.47,0.00,0.00
15min,AgWx,bigpiney,439,24OCT2019:08:15:00,18.4,14.93,20.8,19.0,18.5,19.5,17.4,79,83,77,0.274,13.2,14.0,12.8,0,0.8,228,16,2.0,0.00035,0.00039,37.3,39.6,43,201,0,0.0,5.47,0.00,0.00
15min,AgWx,bigpiney,439,24OCT2019:08:30:00,20.9,14.89,21.1,20.9,20.0,20.9,19.1,76,78,73,0.283,13.5,14.2,13.0,0.263,1.2,187,14,2.3,0.00053,0.00058,37.3,39.5,43,248,0,0.0,5.47,0.00,0.00
15min,AgWx,bigpiney,439,24OCT2019:08:45:00,23.6,15.04,23.0,22.5,22.0,22.7,20.8,72,75,71,0.294,14.5,15.3,13.6,1.513,1.3,44,68,3.6,0.00072,0.00080,37.3,39.5,43,297,0,0.0,5.47,0.00,0.00